Probability
0 0 0 0 0 0 0 0 0 0 0 1 1 0 0 0 0 0 0 0 0 0 0 0 0 0 0 0 0 0 0 0 0 0 0 0 0 0
0 0 0 0 0 0 0 0 0 0 0 1 1 0 0 0 0 0 0 0 0 0 0 0 0 0 0 0 0 0 0 0 0 0 0 0 0 0
0 0 0 0 0 0 0 0 0 0 0 1 1 0 0 0 0 0 0 0 0 0 0 0 0 0 0 0 0 0 0 0 0 0 0 0 0 0
0 0 0 0 0 0 0 0 0 0 0 0 0 0 0 0 0 0 0 0 0 0 0 0 0 0 0 0 0 0 0 0 0 0 0 0 0 0
0 0 0 0 0 0 0 0 0 0 0 0 0 0 0 0 0 0 0 0 0 0 0 0 0 0 0 0 0 0 0 0 0 0 0 0 0 0
0 0 0 0 0 0 0 0 0 0 0 0 0 0 0 0 0 0 0 0 0 0 0 0 0 0 0 0 0 0 0 0 0 0 0 0 0 0
0 0 0 0 0 0 0 0 0 0 0 0 0 0 0 0 0 0 0 0 0 0 0 0 0 0 0 0 0 0 0 0 0 0 0 0 0 0
0 0 0 0 0 0 0 0 0 0 0 0 0 0 0 0 0 0 0 0 1 1 0 0 0 0 0 0 0 0 0 0 0 0 0 0 0 0
0 0 0 0 0 0 0 0 0 0 0 0 0 0 0 0 0 0 0 0 1 1 1 0 0 0 1 0 0 0 0 0 0 0 0 0 0 0
0 0 0 0 0 0 0 0 0 0 0 0 0 0 0 0 0 0 0 0 1 1 1 1 0 0 1 1 0 0 0 0 0 0 0 0 0 0
0 0 0 0 0 0 0 0 0 0 0 0 0 0 0 0 0 0 0 0 0 0 0 0 0 0 0 1 0 0 0 0 0 0 0 0 0 0
0 0 0 0 0 0 0 0 0 0 0 0 0 0 0 0 0 0 0 0 0 0 0 0 0 0 0 0 0 0 0 0 0 0 0 0 0 0
0 0 0 0 0 0 0 0 0 0 0 0 0 0 0 0 0 0 0 0 0 0 0 0 0 0 0 0 0 0 0 0 0 0 0 0 0 0
0 0 0 0 0 0 0 0 0 0 0 0 0 0 0 0 0 0 0 0 0 0 0 0 0 0 0 0 0 0 0 0 0 0 0 0 0 0
0 0 0 0 0 0 0 0 0 0 0 0 0 0 0 0 0 0 0 0 0 0 0 0 0 0 0 0 0 0 0 0 0 0 0 0 0 0
0 0 0 0 0 0 0 0 0 0 0 0 0 0 0 0 0 0 0 0 0 0 0 0 0 0 0 0 0 0 0 0 0 0 0 0 0 0
0 0 0 0 0 0 0 0 0 0 0 0 0 0 0 0 0 0 0 0 0 0 0 0 0 0 0 0 0 0 0 0 0 0 0 0 0 0
0 0 0 0 0 0 0 0 0 0 0 0 0 0 0 0 0 0 0 0 0 0 0 0 0 0 0 0 0 0 0 0 0 0 0 0 0 0
0 0 0 0 0 0 0 0 0 0 0 0 0 0 0 0 0 0 0 0 0 0 0 0 0 0 0 0 0 0 0 0 0 0 0 0 0 0
0 0 0 0 0 0 0 0 0 0 0 0 0 0 0 0 0 0 0 0 0 0 0 0 0 0 0 0 0 0 0 0 0 0 0 0 0 0
0 0 0 0 0 0 0 0 0 0 0 0 0 0 0 0 0 0 0 0 0 0 0 0 0 0 0 0 0 0 0 0 0 0 0 0 0 0
0 0 0 0 0 0 0 0 0 0 0 0 0 0 0 0 0 0 0 0 0 0 0 0 0 0 0 0 0 0 0 0 0 0 0 0 0 0
0 0 0 0 0 0 0 0 0 0 0 0 0 0 0 0 0 0 0 0 0 0 0 0 0 0 0 0 0 0 0 0 0 0 0 0 0 0
Wind_Speed
6 7 7 6 7 7 7 7 6 6 5 5 4 4 4 4 5 8 10 13 13 11 9 8 7 6 5 4 3 3 4 5 5 6 6 5 5 5
5 7 7 6 6 7 7 7 7 7 5 3 3 3 2 3 5 8 8 12 13 12 11 11 9 8 7 7 6 6 5 6 6 7 7 7 5 4
6 7 7 7 6 6 6 6 7 7 7 5 3 4 5 6 4 6 7 8 9 15 14 13 12 11 10 9 9 8 8 7 7 7 8 8 7 5
5 6 7 6 7 6 6 7 7 7 7 8 5 5 7 6 6 6 5 6 7 12 15 14 13 12 12 11 11 10 10 9 8 8 9 9 8 7
6 6 6 6 7 6 7 7 6 6 7 7 6 4 4 4 5 5 6 6 7 7 12 13 14 13 13 13 12 12 11 10 9 9 9 9 8 8
6 5 6 6 6 6 6 6 6 6 6 6 6 5 4 3 4 5 5 5 6 6 8 9 11 15 16 15 15 14 13 12 10 10 9 8 8 8
7 6 5 3 4 4 4 4 4 4 4 4 5 4 4 4 4 3 4 4 5 6 6 7 8 10 12 16 18 17 15 14 13 12 11 10 10 10
8 6 5 7 7 7 5 4 4 3 3 3 3 4 4 4 4 3 3 3 4 3 5 6 6 8 8 9 11 15 17 16 14 13 12 12 12 12
8 7 4 4 5 6 8 8 7 5 4 4 3 3 2 2 3 4 4 3 3 0 2 5 5 7 7 6 7 10 12 14 15 14 14 14 13 13
7 7 7 7 6 4 5 6 5 5 5 6 3 2 1 1 1 2 2 2 3 1 2 3 3 4 5 5 7 9 10 11 13 14 14 14 13 12
5 6 6 6 6 2 6 5 4 3 4 4 4 3 2 1 2 2 2 2 2 2 2 2 2 2 3 4 0 4 7 10 11 13 13 13 12 12
2 3 1 2 2 3 7 5 5 2 2 5 5 6 6 6 6 4 2 2 2 1 3 2 1 1 2 1 2 2 3 7 10 11 12 12 11 10
1 2 2 2 2 4 7 6 2 3 2 1 2 2 2 2 3 3 2 2 2 2 3 3 2 2 2 2 2 2 2 3 3 5 10 11 11 11
2 2 1 1 3 4 6 2 0 3 3 1 2 2 2 1 1 1 1 1 1 1 2 4 2 2 2 2 2 2 2 3 3 4 3 4 9 13
2 3 4 4 5 6 4 3 4 4 2 2 2 2 2 2 1 1 0 0 1 1 1 2 2 2 2 3 4 4 4 3 3 3 3 3 3 4
1 1 2 1 1 1 2 3 3 2 2 2 3 3 2 2 1 1 1 1 0 1 1 0 1 3 4 5 5 5 5 4 3 3 3 4 4 4
3 1 1 1 2 2 2 2 2 3 3 2 3 3 2 2 1 1 1 2 2 2 1 1 2 3 5 6 6 5 5 4 4 3 3 5 5 5
2 2 3 3 2 2 2 3 3 2 2 3 3 2 2 1 1 1 1 2 3 3 3 3 3 4 4 3 3 5 4 4 5 4 3 5 6 5
7 6 6 5 5 4 4 4 4 4 4 4 3 3 3 2 2 2 2 3 3 4 4 4 4 4 6 6 2 1 6 6 6 5 5 5 7 7
8 7 7 7 6 6 6 5 5 5 4 5 5 4 4 3 3 3 3 4 4 4 4 4 4 4 5 6 5 4 3 5 6 6 6 6 6 7
7 7 7 7 7 6 6 6 6 5 5 5 5 4 4 3 3 3 3 3 4 4 5 5 4 4 4 4 4 4 3 1 3 5 6 6 6 6
6 6 6 6 6 6 6 5 5 5 5 5 4 4 3 3 3 4 4 4 4 4 5 4 5 4 3 4 5 5 5 4 1 1 1 2 4 6
6 6 6 6 6 5 5 5 5 4 4 4 3 3 4 3 3 4 4 4 4 5 5 5 5 4 4 4 5 4 5 6 4 4 1 3 5 7
Wind_Direction
242 243 242 242 239 233 233 230 230 233 233 230 216 197 205 224 177 210 224 188 195 205 208 208 209 212 218 228 244 271 294 303 303 301 302 308 324 343
243 246 242 240 235 230 227 227 228 235 240 228 214 193 175 225 204 239 239 165 193 205 210 212 214 218 226 233 242 253 268 280 289 291 290 285 288 308
235 243 245 241 236 229 226 224 223 225 237 241 233 246 246 249 216 236 241 219 206 200 208 214 216 219 225 232 239 247 257 267 279 285 285 278 271 275
243 246 250 245 241 235 228 227 225 223 234 245 237 233 245 255 260 251 243 240 244 189 200 212 218 220 223 228 235 241 248 256 265 275 279 275 270 266
241 248 250 241 239 231 228 230 229 229 230 242 243 226 234 235 253 256 252 247 248 202 197 212 217 222 224 226 229 234 239 246 253 262 270 275 273 267
233 240 249 245 247 241 235 234 230 229 228 235 242 237 229 214 234 241 242 233 241 233 218 217 216 218 226 229 230 231 233 236 241 248 254 261 265 267
230 228 231 261 305 287 280 260 235 228 222 226 235 235 222 200 215 225 242 243 243 237 237 222 217 221 218 225 230 233 231 231 234 238 242 245 251 256
231 226 201 207 212 226 255 285 293 257 229 221 220 226 230 225 222 220 237 245 250 209 238 243 232 237 235 236 209 211 221 227 228 230 233 234 239 245
234 222 207 206 213 212 196 210 222 226 248 266 242 234 233 220 222 219 226 241 256 279 258 268 244 248 251 240 199 206 218 225 228 228 230 231 233 237
239 241 225 214 206 233 219 220 218 203 209 236 258 284 331 351 255 239 220 244 267 238 224 270 276 271 284 270 193 214 228 233 234 233 231 230 229 231
231 240 252 245 123 233 256 245 231 208 189 242 314 340 18 317 281 236 210 231 248 216 185 251 317 318 304 301 20 214 240 240 239 239 237 231 226 229
215 215 190 298 106 214 249 250 254 238 202 180 203 215 224 209 211 235 236 240 241 225 174 195 240 304 300 321 331 315 266 236 235 237 237 233 221 230
227 209 141 134 254 238 262 268 304 319 267 215 180 179 194 195 195 209 214 230 243 234 176 184 203 207 251 283 270 255 279 296 265 235 224 224 219 227
343 343 46 4 284 259 255 276 30 262 256 212 184 182 189 174 163 168 191 213 246 260 188 191 217 220 250 271 276 270 273 277 291 301 308 191 218 229
342 347 325 301 271 234 216 234 221 219 210 204 185 150 122 107 103 93 79 39 105 101 132 186 226 244 264 287 300 300 302 294 293 300 306 300 280 240
261 206 213 238 266 32 158 188 201 185 192 183 148 128 131 134 109 49 15 340 295 137 115 100 284 289 285 280 280 287 293 293 295 293 291 286 275 261
330 301 128 140 140 131 131 130 140 153 156 137 132 133 135 126 107 62 348 325 319 325 325 322 307 292 279 282 287 292 302 305 305 308 301 296 286 265
13 56 54 59 68 87 108 108 100 99 102 104 104 103 100 90 77 53 342 330 331 340 345 347 333 312 289 260 256 295 311 320 325 322 302 297 301 303
43 44 40 40 44 49 55 64 63 57 60 69 71 67 59 49 34 24 6 349 343 345 347 346 338 324 315 317 0 334 327 328 325 321 317 306 303 312
41 40 38 37 39 43 46 51 56 56 54 58 57 52 43 36 27 14 8 2 348 341 339 347 349 338 322 320 321 324 330 328 331 325 323 318 308 297
41 41 38 37 37 39 41 46 48 47 46 47 44 37 32 26 22 10 5 8 338 342 342 344 352 328 302 296 293 304 346 21 334 324 328 324 320 317
43 41 39 37 37 37 37 38 44 44 37 34 28 20 15 12 8 359 354 354 359 354 339 335 339 336 325 315 319 326 333 343 17 198 265 295 322 325
38 39 35 30 30 31 31 34 37 37 28 19 11 0 353 357 359 3 5 5 3 356 348 345 348 346 341 335 332 335 344 354 352 344 3 183 232 260